Washington State Current Weather Observations

 
 ASUS46 KSEW 131710
 RWRWA 
 
 WASHINGTON REGIONAL WEATHER ROUNDUP
 NATIONAL WEATHER SERVICE SEATTLE WA
 900 AM PST THU DEC 13 2018
 
 NOTE:"FAIR" INDICATES FEW OR NO CLOUDS BELOW 12,000 FEET WITH NO 
 SIGNIFICANT WEATHER AND/OR OBSTRUCTIONS TO VISIBILITY.
 
 WAZ507-509-555>559-131800-
 SEATTLE, TACOMA, EVERETT, AND VICINITY
   
 CITY           SKY/WX    TMP DP  RH WIND       PRES   REMARKS
 EVERETT        CLOUDY    47  40  76 SE17G26   30.05R                  
 BOEING FIELD   LGT RAIN  49  41  74 S7        30.07R                  
 RENTON         LGT RAIN  49  48  97 CALM      30.07R                  
 SEATAC AIRPORT LGT RAIN  49  40  71 S8        30.06R                  
 JBLM-MCCHORD   CLOUDY    51  44  79 S10       30.06R                  
 PUYALLUP       CLOUDY    52  34  50 S13G20    30.06S                  
 BREMERTON      LGT RAIN  45  43  93 SW6       30.06R FOG              
 JBLM-FT LEWIS  MOCLDY    51  44  79 SE21      30.05R                  
 TACOMA NARROWS CLOUDY    50  40  68 S16G24    30.06R                  
 
WAZ001-503-506-510-514-515-131800- NORTH INTERIOR CITY SKY/WX TMP DP RH WIND PRES REMARKS BELLINGHAM CLOUDY 48 41 76 SE21G29 29.97S FRIDAY HARBOR CLOUDY 47 44 90 SE20G26 29.97R EASTSOUND LGT RAIN 48 46 93 SE15G24 29.96R PORT ANGELES LGT RAIN 47 46 97 CALM 29.95R EDIZ HOOK LGT RAIN 47 46 99 SE5 29.95S PORT TOWNSEND CLOUDY 48 45 87 S8G16 29.98S NAS WHIDBEY CLOUDY 51 44 77 SE29G40 30.02S ARLINGTON CLOUDY 48 42 80 SE17 30.05R BURLINGTON CLOUDY 48 43 81 SE14G20 30.01S
WAZ020-022-039-040-504-511-512-131800- SOUTHWEST INTERIOR CITY SKY/WX TMP DP RH WIND PRES REMARKS SHELTON LGT RAIN 47 44 90 E6 30.02R OLYMPIA MOCLDY 49 39 68 S20G30 30.06R CHEHALIS FAIR 48 41 76 S15G26 30.09R KELSO CLOUDY 49 39 68 SE10 30.15S VANCOUVER MOCLDY 45 39 79 SE10 30.19S SCAPPOOSE, OR MOCLDY 47 39 74 S8 30.16F PORTLAND, OR MOCLDY 45 39 79 SE10 30.19F
WAZ021-516-517-131800- WASHINGTON COAST CITY SKY/WX TMP DP RH WIND PRES REMARKS FORKS LGT RAIN 50 50 100 S17G30 29.92S FOG HOQUIAM LGT RAIN 50 48 93 S24G33 30.03R FOG ASTORIA, OR CLOUDY 53 44 71 S21G33 30.07S
WAZ019-023-024-040-567>569-131800- CASCADE MOUNTAINS AND COLUMBIA GORGE CITY SKY/WX TMP DP RH WIND PRES REMARKS STAMPEDE PASS NOT AVBL TROUTDALE, OR MOCLDY 43 39 86 E10 30.21S HOOD RIVER, OR FOG 36 34 93 CALM 30.22S VSB<1/4 THE DALLES, OR MOSUNNY 35 33 92 SE5 30.23S
WAZ026-027-041>044-520-521-131800- EAST SLOPES CITY SKY/WX TMP DP RH WIND PRES REMARKS OMAK MOCLDY 41 34 76 S18 30.03S WENATCHEE CLOUDY 35 32 88 CALM 30.07R ELLENSBURG CLOUDY 33 29 85 CALM 30.09R YAKIMA CLOUDY 47 23 38 SE8 30.11S SUNNYSIDE ARPT CLOUDY 47 32 56 CALM 30.16R YAKIMA TC FAIR 44 24 44 S12 30.07R
WAZ028-034-035-131800- COLUMBIA BASIN CITY SKY/WX TMP DP RH WIND PRES REMARKS EPHRATA CLOUDY 39 34 82 S3 30.08S MOSES LAKE CLOUDY 41 33 73 SE13 30.10R PASCO CLOUDY 45 32 60 S8 30.19R RICHLAND ARPT CLOUDY 48 32 53 S7 30.19 HERMISTON, OR CLOUDY 41 32 70 CALM 30.18R
WAZ036>038-131800- NORTHEAST WASHINGTON CITY SKY/WX TMP DP RH WIND PRES REMARKS SPOKANE GEIGER CLOUDY 34 30 85 SE15 30.13R WCI 24 SPOKANE FELTS CLOUDY 38 33 82 SE7 30.18R FAIRCHILD AFB CLOUDY 33 33 100 SE12 30.11S WCI 25 COEURDALENE,ID LGT SNOW 33 31 92 S12 30.19R FOG WCI 24 DEER PARK CLOUDY 34 32 92 SE9 30.16R
WAZ029>033-131800- SOUTHEAST WASHINGTON CITY SKY/WX TMP DP RH WIND PRES REMARKS PULLMAN CLOUDY 36 27 69 SE20 30.21S LEWISTON, ID CLOUDY 44 26 49 SE14G31 30.26S WALLA WALLA CLOUDY 53 26 35 S20G28 30.15F PENDLETON, OR CLOUDY 48 28 46 SW12 30.18R

Data from: http://www.wrh.noaa.gov/sew/get.php?pil=RWR&sid=WA&version=0&format=printer

Current Observations

Current Weather Conditions by Major Highway
Washington State Current Weather Observations   …  Oregon State Current Weather Observation



48 Hour Forecast


Seattle  …  Vancouver  …  Portland
————————————————————————————————————————
Bend  …  Spokane  …  Richland  …  Pendleton  …  Blue Mountains I-84  …  Yakima
————————————————————————————————————————
Goldendale, Washington Higher Elevations  …  Dallesport Airport - Goldendale  …  Bingen - White Salmon - Hood River  …  Index





Top of Page